YAMAL 300K

Last updated on Mon Sep 15 2025 00:02:47 GMT+0000 (Coordinated Universal Time)

1 38978U 12061B 25257.26481679 .00000060 00000+0 00000+0 0 9993 2 38978 0.0023 71.6743 0000298 69.0834 131.0233 1.00274692 46867
UTC large
Height (km)
Speed (km/s)
/
Latitude / Longitude
Inclination (degrees)
Orbital Period (minutes)
Azimuth
Elevation
Range (km)
Doppler Factor

Next 0 passes for location: London (51.5072 / 0.1276)

Sorry there are no passes over London.